| time (UTC) | temp C | wind direction | speed KPH | gust KPH | rain 1hr cm | rain 24hr cm | rain mn cm | humidity % | barometer mb |
| 20260504081538 | 9 | 0 | 0.0 | 3.2 | 0.00 | 0.00 | 0.00 | 63 | 1016.7 |
| 20260504081026 | 9 | 0 | 0.0 | 3.2 | 0.00 | 0.00 | 0.00 | 62 | 1016.5 |
| 20260504080524 | 9 | 27 | 0.0 | 4.8 | 0.00 | 0.00 | 0.00 | 62 | 1016.6 |
| 20260504050523 | 9 | 0 | 0.0 | 1.6 | 0.00 | 0.00 | 0.00 | 68 | 1017.4 |
| 20260504045524 | 9 | 0 | 0.0 | 4.8 | 0.00 | 0.00 | 0.00 | 61 | 1017.3 |
| 20260504045024 | 9 | 0 | 0.0 | 4.8 | 0.00 | 0.00 | 0.00 | 63 | 1017.3 |
| 20260504044539 | 9 | 0 | 0.0 | 0.0 | 0.00 | 0.00 | 0.00 | 65 | 1017.3 |
| 20260504044023 | 8 | 0 | 0.0 | 0.0 | 0.00 | 0.00 | 0.00 | 63 | 1017.3 |
| 20260504043524 | 8 | 0 | 0.0 | 0.0 | 0.00 | 0.00 | 0.00 | 67 | 1017.4 |
| 20260504043043 | 8 | 0 | 0.0 | 0.0 | 0.00 | 0.00 | 0.00 | 73 | 1017.4 |
| 20260504042524 | 8 | 0 | 0.0 | 0.0 | 0.00 | 0.00 | 0.00 | 72 | 1017.3 |
| 20260504042024 | 8 | 0 | 0.0 | 0.0 | 0.00 | 0.00 | 0.00 | 71 | 1017.4 |
| 20260504041547 | 8 | 0 | 0.0 | 0.0 | 0.00 | 0.00 | 0.00 | 71 | 1017.4 |
| 20260504041023 | 8 | 0 | 0.0 | 0.0 | 0.00 | 0.00 | 0.00 | 67 | 1017.3 |
| 20260504040525 | 8 | 0 | 0.0 | 0.0 | 0.00 | 0.00 | 0.00 | 70 | 1017.4 |
| 20260504040100 | 8 | 0 | 0.0 | 0.0 | 0.00 | 0.00 | 0.00 | 67 | 1017.3 |
| 20260504035523 | 8 | 0 | 0.0 | 0.0 | 0.00 | 0.00 | 0.00 | 71 | 1017.4 |
| 20260504035023 | 8 | 0 | 0.0 | 1.6 | 0.00 | 0.00 | 0.00 | 68 | 1017.3 |
| 20260504034544 | 8 | 0 | 0.0 | 1.6 | 0.00 | 0.00 | 0.00 | 67 | 1017.4 |
| 20260504034027 | 9 | 0 | 0.0 | 1.6 | 0.00 | 0.00 | 0.00 | 64 | 1017.4 |
| 20260504033523 | 9 | 0 | 0.0 | 1.6 | 0.00 | 0.00 | 0.00 | 59 | 1017.5 |
| 20260504033042 | 9 | 0 | 0.0 | 1.6 | 0.00 | 0.00 | 0.00 | 58 | 1017.5 |
| 20260504032524 | 9 | 142 | 0.0 | 1.6 | 0.00 | 0.00 | 0.00 | 57 | 1017.4 |
| 20260504032023 | 9 | 142 | 0.0 | 1.6 | 0.00 | 0.00 | 0.00 | 57 | 1017.4 |
| 20260504031552 | 9 | 0 | 0.0 | 1.6 | 0.00 | 0.00 | 0.00 | 58 | 1017.4 |
| 20260504031023 | 9 | 0 | 0.0 | 1.6 | 0.00 | 0.00 | 0.00 | 60 | 1017.4 |
| 20260504030523 | 9 | 0 | 0.0 | 1.6 | 0.00 | 0.00 | 0.00 | 61 | 1017.6 |
| 20260504030042 | 9 | 0 | 0.0 | 1.6 | 0.00 | 0.00 | 0.00 | 56 | 1017.6 |
| 20260504025524 | 9 | 0 | 0.0 | 1.6 | 0.00 | 0.00 | 0.00 | 59 | 1017.6 |
| 20260504025024 | 9 | 0 | 0.0 | 0.0 | 0.00 | 0.00 | 0.00 | 60 | 1017.7 |
| 20260504024545 | 9 | 0 | 0.0 | 0.0 | 0.00 | 0.00 | 0.00 | 63 | 1017.6 |
| 20260504024023 | 9 | 0 | 0.0 | 1.6 | 0.00 | 0.00 | 0.00 | 58 | 1017.6 |
| 20260504023523 | 9 | 146 | 0.0 | 1.6 | 0.00 | 0.00 | 0.00 | 56 | 1017.6 |
| 20260504023046 | 9 | 0 | 0.0 | 1.6 | 0.00 | 0.00 | 0.00 | 57 | 1017.7 |
| 20260504022526 | 9 | 70 | 0.0 | 1.6 | 0.00 | 0.00 | 0.00 | 57 | 1017.7 |
| 20260504022024 | 9 | 0 | 0.0 | 1.6 | 0.00 | 0.00 | 0.00 | 57 | 1017.6 |
| 20260504021543 | 9 | 0 | 0.0 | 1.6 | 0.00 | 0.00 | 0.00 | 58 | 1017.5 |
| 20260504021023 | 9 | 71 | 0.0 | 1.6 | 0.00 | 0.00 | 0.00 | 56 | 1017.5 |
| 20260504020523 | 10 | 0 | 0.0 | 1.6 | 0.00 | 0.00 | 0.00 | 56 | 1017.5 |
| 20260504020050 | 10 | 0 | 0.0 | 1.6 | 0.00 | 0.00 | 0.00 | 57 | 1017.4 |
| 20260504015523 | 10 | 0 | 0.0 | 1.6 | 0.00 | 0.00 | 0.00 | 56 | 1017.5 |
| 20260504015025 | 10 | 0 | 0.0 | 0.0 | 0.00 | 0.00 | 0.00 | 55 | 1017.6 |
| 20260504014542 | 10 | 0 | 0.0 | 0.0 | 0.00 | 0.00 | 0.00 | 56 | 1017.6 |
| 20260504014022 | 10 | 0 | 0.0 | 0.0 | 0.00 | 0.00 | 0.00 | 53 | 1017.6 |
| 20260504013522 | 10 | 0 | 0.0 | 0.0 | 0.00 | 0.00 | 0.00 | 51 | 1017.7 |
| 20260504013046 | 10 | 0 | 0.0 | 1.6 | 0.00 | 0.00 | 0.00 | 51 | 1017.6 |
| 20260504012523 | 10 | 0 | 0.0 | 1.6 | 0.00 | 0.00 | 0.00 | 51 | 1017.5 |
| 20260504012024 | 10 | 0 | 0.0 | 1.6 | 0.00 | 0.00 | 0.00 | 50 | 1017.4 |
| 20260504011546 | 10 | 66 | 0.0 | 1.6 | 0.00 | 0.00 | 0.00 | 49 | 1017.6 |
| 20260504011024 | 11 | 0 | 0.0 | 1.6 | 0.00 | 0.00 | 0.00 | 50 | 1017.4 |
| 20260504010523 | 11 | 0 | 0.0 | 1.6 | 0.00 | 0.00 | 0.00 | 49 | 1017.5 |
| 20260504010035 | 11 | 0 | 0.0 | 0.0 | 0.00 | 0.00 | 0.00 | 49 | 1017.4 |
| 20260504005523 | 11 | 0 | 0.0 | 1.6 | 0.00 | 0.00 | 0.00 | 48 | 1017.4 |
| 20260504005023 | 11 | 0 | 0.0 | 1.6 | 0.00 | 0.00 | 0.00 | 47 | 1017.4 |
| 20260504004541 | 11 | 0 | 0.0 | 0.0 | 0.00 | 0.00 | 0.00 | 47 | 1017.3 |
| 20260504004024 | 11 | 0 | 0.0 | 1.6 | 0.00 | 0.00 | 0.00 | 47 | 1017.3 |
| 20260504003523 | 11 | 0 | 0.0 | 1.6 | 0.00 | 0.00 | 0.00 | 47 | 1017.4 |
| 20260504003042 | 11 | 0 | 0.0 | 1.6 | 0.00 | 0.00 | 0.00 | 47 | 1017.3 |
| 20260504002523 | 11 | 0 | 0.0 | 1.6 | 0.00 | 0.00 | 0.00 | 47 | 1017.4 |
| 20260504002023 | 11 | 0 | 0.0 | 1.6 | 0.00 | 0.00 | 0.00 | 45 | 1017.3 |
| 20260504001548 | 11 | 0 | 0.0 | 0.0 | 0.00 | 0.00 | 0.00 | 46 | 1017.2 |
| 20260504001024 | 12 | 0 | 0.0 | 0.0 | 0.00 | 0.00 | 0.00 | 45 | 1017.2 |
| 20260504000522 | 12 | 0 | 0.0 | 1.6 | 0.00 | 0.00 | 0.00 | 45 | 1017.3 |
| 20260504000038 | 12 | 232 | 0.0 | 1.6 | 0.00 | 0.00 | 0.00 | 45 | 1017.4 |
| 20260503235524 | 12 | 0 | 0.0 | 3.2 | 0.00 | 0.00 | 0.00 | 45 | 1017.3 |
| 20260503235022 | 12 | 0 | 0.0 | 3.2 | 0.00 | 0.00 | 0.00 | 45 | 1017.4 |
| 20260503234601 | 12 | 44 | 0.0 | 1.6 | 0.00 | 0.00 | 0.00 | 46 | 1017.4 |
| 20260503234023 | 12 | 0 | 0.0 | 3.2 | 0.00 | 0.00 | 0.00 | 44 | 1017.4 |
| 20260503233524 | 12 | 311 | 0.0 | 3.2 | 0.00 | 0.00 | 0.00 | 41 | 1017.4 |
| 20260503233047 | 12 | 299 | 0.0 | 4.8 | 0.00 | 0.00 | 0.00 | 41 | 1017.4 |
| 20260503232523 | 13 | 283 | 1.6 | 4.8 | 0.00 | 0.00 | 0.00 | 41 | 1017.4 |
| 20260503232023 | 13 | 295 | 1.6 | 6.4 | 0.00 | 0.00 | 0.00 | 42 | 1017.4 |
| 20260503231542 | 13 | 47 | 1.6 | 6.4 | 0.00 | 0.00 | 0.00 | 45 | 1017.4 |
| 20260503231025 | 13 | 310 | 0.0 | 4.8 | 0.00 | 0.00 | 0.00 | 42 | 1017.5 |
| 20260503230523 | 13 | 308 | 0.0 | 4.8 | 0.00 | 0.00 | 0.00 | 40 | 1017.4 |
| 20260503230041 | 13 | 360 | 1.6 | 4.8 | 0.00 | 0.00 | 0.00 | 40 | 1017.4 |
| 20260503225522 | 13 | 269 | 1.6 | 6.4 | 0.00 | 0.00 | 0.00 | 41 | 1017.5 |
| 20260503225023 | 13 | 40 | 3.2 | 6.4 | 0.00 | 0.00 | 0.00 | 39 | 1017.4 |
| 20260503224539 | 13 | 292 | 1.6 | 6.4 | 0.00 | 0.00 | 0.00 | 40 | 1017.5 |
| 20260503224023 | 13 | 360 | 3.2 | 4.8 | 0.00 | 0.00 | 0.00 | 41 | 1017.6 |
| 20260503223523 | 13 | 308 | 0.0 | 4.8 | 0.00 | 0.00 | 0.00 | 38 | 1017.5 |
| 20260503223043 | 13 | 20 | 3.2 | 6.4 | 0.00 | 0.00 | 0.00 | 37 | 1017.5 |
| 20260503222522 | 14 | 15 | 3.2 | 6.4 | 0.00 | 0.00 | 0.00 | 40 | 1017.6 |
| 20260503222023 | 14 | 314 | 1.6 | 4.8 | 0.00 | 0.00 | 0.00 | 43 | 1017.6 |
| 20260503221553 | 14 | 0 | 1.6 | 3.2 | 0.00 | 0.00 | 0.00 | 39 | 1017.6 |
| 20260503221023 | 14 | 21 | 1.6 | 12.9 | 0.00 | 0.00 | 0.00 | 40 | 1017.8 |
| 20260503220523 | 14 | 18 | 3.2 | 12.9 | 0.00 | 0.00 | 0.00 | 40 | 1017.6 |
| 20260503220047 | 14 | 23 | 1.6 | 8.0 | 0.00 | 0.00 | 0.00 | 38 | 1017.7 |
| 20260503215523 | 14 | 269 | 1.6 | 4.8 | 0.00 | 0.00 | 0.00 | 40 | 1017.6 |
| 20260503215024 | 14 | 38 | 1.6 | 8.0 | 0.00 | 0.00 | 0.00 | 38 | 1017.6 |
| 20260503214539 | 14 | 294 | 1.6 | 8.0 | 0.00 | 0.00 | 0.00 | 39 | 1017.6 |
| 20260503214023 | 14 | 205 | 1.6 | 8.0 | 0.00 | 0.00 | 0.00 | 39 | 1017.4 |
| 20260503213523 | 14 | 283 | 1.6 | 8.0 | 0.00 | 0.00 | 0.00 | 39 | 1017.5 |
| 20260503213042 | 14 | 11 | 3.2 | 8.0 | 0.00 | 0.00 | 0.00 | 39 | 1017.5 |
| 20260503212525 | 14 | 290 | 3.2 | 8.0 | 0.00 | 0.00 | 0.00 | 39 | 1017.6 |
| 20260503212026 | 14 | 314 | 3.2 | 6.4 | 0.00 | 0.00 | 0.00 | 38 | 1017.6 |
| 20260503211546 | 14 | 341 | 1.6 | 6.4 | 0.00 | 0.00 | 0.00 | 38 | 1017.6 |
| 20260503211025 | 14 | 257 | 3.2 | 6.4 | 0.00 | 0.00 | 0.00 | 39 | 1017.5 |
| 20260503210526 | 15 | 344 | 1.6 | 6.4 | 0.00 | 0.00 | 0.00 | 39 | 1017.5 |
| 20260503210043 | 14 | 264 | 1.6 | 6.4 | 0.00 | 0.00 | 0.00 | 38 | 1017.6 |
| 20260503205528 | 14 | 34 | 1.6 | 9.7 | 0.00 | 0.00 | 0.00 | 40 | 1017.8 |
| 20260503205027 | 15 | 321 | 3.2 | 9.7 | 0.00 | 0.00 | 0.00 | 37 | 1017.8 |
| 20260503204546 | 15 | 298 | 3.2 | 9.7 | 0.00 | 0.00 | 0.00 | 37 | 1017.8 |
| 20260503204026 | 15 | 26 | 3.2 | 8.0 | 0.00 | 0.00 | 0.00 | 36 | 1017.8 |
| 20260503203523 | 15 | 24 | 1.6 | 6.4 | 0.00 | 0.00 | 0.00 | 38 | 1017.7 |
| 20260503203054 | 14 | 48 | 1.6 | 8.0 | 0.00 | 0.00 | 0.00 | 37 | 1018.0 |
| 20260503202526 | 14 | 305 | 1.6 | 9.7 | 0.00 | 0.00 | 0.00 | 37 | 1018.1 |
| 20260503202028 | 15 | 17 | 4.8 | 9.7 | 0.00 | 0.00 | 0.00 | 36 | 1018.1 |
| 20260503201549 | 15 | 272 | 3.2 | 9.7 | 0.00 | 0.00 | 0.00 | 39 | 1018.1 |
| 20260503201023 | 15 | 18 | 4.8 | 9.7 | 0.00 | 0.00 | 0.00 | 36 | 1018.2 |
| 20260503200526 | 14 | 328 | 3.2 | 9.7 | 0.00 | 0.00 | 0.00 | 37 | 1018.3 |
| 20260503200039 | 14 | 331 | 3.2 | 9.7 | 0.00 | 0.00 | 0.00 | 39 | 1018.4 |
| 20260503195525 | 14 | 305 | 4.8 | 9.7 | 0.00 | 0.00 | 0.00 | 36 | 1018.3 |
| 20260503195027 | 14 | 342 | 1.6 | 9.7 | 0.00 | 0.00 | 0.00 | 36 | 1018.5 |
| 20260503194555 | 14 | 262 | 4.8 | 9.7 | 0.00 | 0.00 | 0.00 | 37 | 1018.7 |
| 20260503194026 | 14 | 307 | 4.8 | 8.0 | 0.00 | 0.00 | 0.00 | 39 | 1018.6 |
| 20260503193530 | 14 | 307 | 3.2 | 6.4 | 0.00 | 0.00 | 0.00 | 37 | 1018.8 |
| 20260503193045 | 14 | 0 | 1.6 | 14.5 | 0.00 | 0.00 | 0.00 | 37 | 1018.9 |
| 20260503192525 | 14 | 285 | 4.8 | 14.5 | 0.00 | 0.00 | 0.00 | 39 | 1018.8 |
| 20260503192026 | 13 | 342 | 1.6 | 8.0 | 0.00 | 0.00 | 0.00 | 38 | 1018.9 |
| 20260503191547 | 13 | 34 | 3.2 | 8.0 | 0.00 | 0.00 | 0.00 | 37 | 1019.0 |
| 20260503191027 | 13 | 305 | 4.8 | 8.0 | 0.00 | 0.00 | 0.00 | 38 | 1019.1 |
| 20260503190527 | 13 | 259 | 3.2 | 8.0 | 0.00 | 0.00 | 0.00 | 39 | 1019.2 |
| 20260503190047 | 12 | 247 | 3.2 | 8.0 | 0.00 | 0.00 | 0.00 | 38 | 1019.2 |
| 20260503185523 | 12 | 1 | 1.6 | 4.8 | 0.00 | 0.00 | 0.00 | 40 | 1019.2 |
| 20260503185026 | 12 | 41 | 3.2 | 6.4 | 0.00 | 0.00 | 0.00 | 41 | 1019.1 |
| 20260503184543 | 13 | 19 | 1.6 | 11.3 | 0.00 | 0.00 | 0.00 | 39 | 1019.3 |
| 20260503184029 | 13 | 41 | 3.2 | 11.3 | 0.00 | 0.00 | 0.00 | 39 | 1019.5 |
| 20260503183522 | 13 | 16 | 4.8 | 9.7 | 0.00 | 0.00 | 0.00 | 39 | 1019.4 |
| 20260503183039 | 13 | 109 | 1.6 | 8.0 | 0.00 | 0.00 | 0.00 | 39 | 1019.4 |
| 20260503182525 | 13 | 35 | 3.2 | 8.0 | 0.00 | 0.00 | 0.00 | 41 | 1019.6 |
| 20260503182026 | 13 | 35 | 1.6 | 6.4 | 0.00 | 0.00 | 0.00 | 39 | 1019.7 |
| 20260503181547 | 13 | 293 | 3.2 | 9.7 | 0.00 | 0.00 | 0.00 | 38 | 1019.8 |
| 20260503181027 | 13 | 167 | 3.2 | 9.7 | 0.00 | 0.00 | 0.00 | 38 | 1019.7 |
| 20260503180527 | 13 | 344 | 3.2 | 8.0 | 0.00 | 0.00 | 0.00 | 40 | 1019.8 |
| 20260503180057 | 13 | 154 | 3.2 | 8.0 | 0.00 | 0.00 | 0.00 | 40 | 1019.9 |
| 20260503175526 | 12 | 14 | 4.8 | 8.0 | 0.00 | 0.00 | 0.00 | 39 | 1020.0 |
| 20260503175026 | 12 | 36 | 4.8 | 11.3 | 0.00 | 0.00 | 0.00 | 39 | 1020.1 |
| 20260503174545 | 12 | 305 | 3.2 | 11.3 | 0.00 | 0.00 | 0.00 | 40 | 1020.1 |
| 20260503174027 | 12 | 62 | 4.8 | 9.7 | 0.00 | 0.00 | 0.00 | 38 | 1020.3 |
| 20260503173527 | 12 | 292 | 3.2 | 9.7 | 0.00 | 0.00 | 0.00 | 38 | 1020.2 |
| 20260503173044 | 12 | 23 | 3.2 | 8.0 | 0.00 | 0.00 | 0.00 | 41 | 1020.2 |
| 20260503172526 | 12 | 231 | 3.2 | 14.5 | 0.00 | 0.00 | 0.00 | 41 | 1020.3 |
| 20260503172028 | 11 | 28 | 3.2 | 14.5 | 0.00 | 0.00 | 0.00 | 42 | 1020.4 |
| 20260503171546 | 11 | 341 | 4.8 | 14.5 | 0.00 | 0.00 | 0.00 | 41 | 1020.4 |
| 20260503171026 | 11 | 54 | 3.2 | 9.7 | 0.00 | 0.00 | 0.00 | 42 | 1020.4 |
| 20260503170527 | 11 | 304 | 1.6 | 8.0 | 0.00 | 0.00 | 0.00 | 42 | 1020.4 |
| 20260503150525 | 8 | 8 | 3.2 | 8.0 | 0.00 | 0.00 | 0.00 | 56 | 1021.3 |
| 20260503131028 | 3 | 0 | 0.0 | 1.6 | 0.00 | 0.00 | 0.00 | 82 | 1021.5 |
| 20260503130527 | 3 | 249 | 0.0 | 1.6 | 0.00 | 0.00 | 0.00 | 84 | 1021.5 |
| 20260503110524 | 1 | 0 | 0.0 | 1.6 | 0.00 | 0.00 | 0.00 | 93 | 1020.8 |